Location: Deurze
(52.9838°N, 6.6090°E)
Time: 19:46:32
(UTC+00:00)

SeaSat 1 - Pass Details

Date: 11 March 2026
Orbit: 736 x 740 km, 108.0° (Epoch: 20 April)

Event Time Altitude Azimuth Distance (km) Brightness Sun altitude
Exits shadow 18:53:27 14° 136° (SE) 2,007 4.2 -13.2°
Maximum altitude 18:57:42 71° 54° (NE) 785 2.4 -13.9°
Drops below altitude 10° 19:02:35 10° 331° (NNW) 2,259 5.5 -14.6°
Sets 19:04:52 0° 330° (NNW) 3,186 6.4 -14.9°
